#timestamp,LO_Frequency,Hit,StdDev 
1576231215.3,286047000.3,N
1576231235.1,286047000.4,N
1576231255.8,286047001.0,N
1576231275.7,286047000.2,N
1576231295.5,286047002.0,N
1576231315.4,286047001.1,N
1576231335.2,286047000.7,N
1576231355.0,286047001.2,N
1576231355.9,286047001.2,N
1576231375.8,286047000.2,N
1576231395.6,286047000.3,N
1576231415.4,286047000.6,N
1576231435.3,286047000.9,N
1576231455.1,286047001.1,N
1576231475.9,286046999.4,N
1576231495.7,286046997.1,Y
1576231515.5,286046996.8,P
1576231535.4,286046997.0,N
1576231555.2,286046998.7,N
1576231575.0,286047001.2,N
1576231575.9,286047001.2,N
1576231595.8,286046999.4,N
1576231615.6,286046999.2,N
1576231635.5,286046996.8,N
1576231655.3,286046996.8,N
1576231675.1,286046997.4,N
1576231695.9,286046998.0,N
1576231715.7,286046995.3,N
1576231735.5,286046996.2,N
1576231755.4,286046995.1,N
1576231775.2,286046997.9,N
1576231795.0,286046997.3,N
1576231795.9,286046997.3,N
1576231815.8,286046997.4,N
1576231835.6,286046996.9,N
1576231855.5,286046997.0,N
1576231875.3,286046998.0,N
1576231895.1,286046996.9,N
1576231915.9,286046998.6,N
1576231935.7,286046999.3,N
1576231955.5,286047000.7,N
1576231975.4,286047002.8,N
1576231995.2,286046998.2,N
1576232015.1,286046998.4,N
1576232016.0,286046998.4,N
1576232035.8,286046999.1,N
1576232055.6,286046997.4,N
1576232075.5,286046994.9,Y
1576232095.3,286046999.6,P
1576232115.2,286046998.3,N
1576232135.9,286046999.1,N
1576232155.7,286046998.1,Y
1576232175.6,286047001.1,P
1576232195.4,286047000.1,N
1576232215.2,286047001.0,N
1576232235.1,286047000.3,N
1576232236.0,286047000.3,N
1576232255.8,286046999.2,N
1576232275.7,286047000.8,N
1576232295.5,286046999.8,N
1576232315.3,286046999.7,N
1576232335.2,286047002.3,Y
1576232355.0,286046999.7,P
1576232355.9,286046999.7,N
1576232375.8,286047001.0,P
1576232395.6,286047000.8,N
1576232415.4,286046999.9,N
1576232435.3,286046998.6,N
1576232455.1,286047000.7,N
1576232475.8,286047002.8,Y
1576232495.7,286047000.1,P
1576232515.5,286047001.9,P
1576232535.4,286047002.1,N
1576232555.2,286047001.5,N
1576232575.0,286047004.2,Y
1576232575.9,286047004.2,P
1576232595.8,286046999.7,N
1576232615.6,286047002.2,N
1576232635.4,286047002.6,N
1576232655.3,286047001.6,N
1576232675.1,286047002.3,N
1576232695.9,286046999.9,N
1576232715.7,286047000.1,N
1576232735.5,286047001.9,N
1576232755.4,286047000.1,N
1576232775.2,286046999.7,N
1576232795.0,286047000.9,N
1576232796.0,286047000.9,N
1576232815.8,286047001.2,N
1576232835.6,286047001.2,N
1576232855.5,286047001.0,N
1576232875.3,286047000.3,N
1576232895.1,286046999.9,N
1576232915.9,286047000.2,N
1576232935.7,286047001.6,N
1576232955.6,286047000.0,N
1576232975.4,286047001.9,N
1576232995.2,286047002.4,N
1576233015.1,286047000.6,N
1576233016.0,286047000.6,N
1576233035.8,286046998.4,N
1576233055.6,286046998.7,N
1576233075.5,286047000.8,N
1576233095.3,286047001.2,N
1576233115.1,286047000.4,N
1576233135.9,286046998.3,N
1576233155.7,286047000.8,N
1576233175.6,286047000.2,N
1576233195.4,286047002.0,N
1576233215.2,286047000.0,N
1576233235.1,286047001.0,N
1576233236.0,286047001.0,N
1576233255.8,286046999.9,N
1576233275.7,286046996.6,Y
1576233295.5,286047000.7,P
1576233315.3,286046999.1,P
1576233335.2,286046999.0,N
1576233355.9,286046998.9,N
1576233375.7,286046997.8,N
1576233395.6,286047001.1,N
1576233415.4,286046999.7,N
1576233435.3,286047000.7,N
1576233455.1,286046998.9,N
1576233456.0,286046998.9,N
1576233475.8,286046999.1,N
1576233495.7,286046998.8,N
1576233515.5,286046996.9,Y
1576233535.3,286046999.0,P
1576233555.2,286046999.2,P
1576233575.0,286046998.3,P
1576233575.9,286046998.3,Y
1576233595.8,286047000.8,P
1576233615.6,286047001.0,N
1576233635.4,286047000.4,N
1576233655.3,286047000.4,N
1576233675.1,286047000.3,N
1576233695.8,286047001.0,N
1576233715.7,286047000.3,N
1576233735.5,286047002.8,Y
1576233755.4,286047002.8,P
1576233775.2,286047000.3,N
1576233795.0,286046999.9,N
1576233795.9,286046999.9,N
1576233815.8,286047002.3,N
1576233835.6,286047002.7,N
1576233855.4,286046998.3,N
1576233875.3,286046998.9,N
1576233895.1,286046999.1,N
1576233915.9,286046998.1,N
1576233935.7,286047001.2,N
1576233955.5,286047002.2,N
1576233975.4,286047002.8,N
1576233995.2,286047000.8,N
1576234015.0,286047000.3,N
1576234016.0,286047000.3,N
1576234035.8,286046998.2,N
1576234055.6,286047001.0,N
1576234075.5,286046998.1,N
1576234095.3,286046999.0,N
1576234115.1,286046998.9,N
1576234135.9,286046998.3,N
1576234155.7,286046998.5,N
1576234175.5,286047002.3,N
1576234195.4,286046999.7,N
1576234215.2,286047002.7,N
1576234235.1,286047000.5,N
1576234236.0,286047000.5,N
1576234255.8,286047000.4,N
1576234275.6,286046998.3,N
1576234295.5,286047001.5,N
1576234315.3,286047002.4,N
1576234335.1,286046999.7,N
1576234355.9,286047000.0,N
1576234375.7,286047000.7,N
1576234395.6,286047000.9,N
1576234415.4,286047000.7,N
1576234435.2,286046998.8,N
1576234455.1,286046997.3,N
1576234456.0,286046997.3,N
1576234475.8,286046996.7,N
1576234495.6,286046996.8,N
1576234515.5,286046997.9,N
1576234535.3,286046997.4,N
1576234555.2,286046997.5,N
1576234575.9,286046995.2,N
1576234595.7,286046996.3,N
1576234615.6,286046995.9,N
1576234635.4,286046996.3,N
1576234655.2,286046994.6,N
1576234675.1,286046995.5,N
1576234676.0,286046995.5,N
1576234695.8,286046996.8,N
1576234715.7,286046997.4,N
1576234735.5,286046996.7,N
1576234755.3,286046997.3,N
1576234775.2,286046997.4,N
1576234795.0,286046997.0,N
1576234795.9,286046997.0,N
